Time,TemperatureF,DewpointF,PressureIn,WindDirection,WindDirectionDegrees,WindSpeedMPH,WindSpeedGustMPH,Humidity,HourlyPrecipIn,Conditions,Clouds,dailyrainin,SoftwareType,DateUTC
2013-02-15 00:00:00,41.4,39.2,29.96,SW,225,9.6,9.6,92,0.00,RA,,0.00,WeatherDisplay:10.37,2013-02-15 00:00:00,
2013-02-15 00:05:00,41.4,39.2,29.96,West,270,10.4,10.4,92,0.00,RA,,0.00,WeatherDisplay:10.37,2013-02-15 00:05:00,
2013-02-15 00:10:00,41.5,39.4,29.96,WNW,292,6.9,6.9,92,0.00,CLR,,0.00,WeatherDisplay:10.37,2013-02-15 00:10:00,
2013-02-15 00:15:00,41.5,39.4,29.96,WSW,248,8.1,8.1,92,0.00,CLR,,0.00,WeatherDisplay:10.37,2013-02-15 00:15:00,
2013-02-15 00:20:00,41.5,39.4,29.97,West,270,9.2,9.2,92,0.00,CLR,,0.00,WeatherDisplay:10.37,2013-02-15 00:20:00,
2013-02-15 00:26:00,41.5,39.4,29.97,WNW,292,10.4,10.4,92,0.00,CLR,,0.00,WeatherDisplay:10.37,2013-02-15 00:26:00,
2013-02-15 00:31:00,41.5,39.4,29.97,WSW,248,10.4,10.4,92,0.00,CLR,,0.00,WeatherDisplay:10.37,2013-02-15 00:31:00,
2013-02-15 00:36:00,41.5,39.4,29.97,West,270,5.8,5.8,92,0.00,CLR,,0.00,WeatherDisplay:10.37,2013-02-15 00:36:00,
2013-02-15 00:41:00,41.5,39.4,29.97,WSW,248,8.1,8.1,92,0.00,CLR,,0.00,WeatherDisplay:10.37,2013-02-15 00:41:00,
2013-02-15 00:46:00,41.7,39.6,29.97,West,270,12.1,12.1,92,0.00,CLR,,0.00,WeatherDisplay:10.37,2013-02-15 00:46:00,
2013-02-15 00:51:00,41.9,39.7,29.97,WNW,292,11.5,11.5,92,0.00,CLR,,0.00,WeatherDisplay:10.37,2013-02-15 00:51:00,
2013-02-15 00:56:00,41.9,39.7,29.98,WNW,292,9.2,9.2,92,0.00,CLR,,0.00,WeatherDisplay:10.37,2013-02-15 00:56:00,
2013-02-15 01:01:00,42.1,39.9,29.98,WNW,292,8.3,8.3,92,0.00,CLR,,0.00,WeatherDisplay:10.37,2013-02-15 01:01:00,
2013-02-15 01:06:00,42.1,39.9,29.98,West,270,11.5,11.5,92,0.00,CLR,,0.00,WeatherDisplay:10.37,2013-02-15 01:06:00,
2013-02-15 01:11:00,42.1,39.9,29.98,WNW,292,12.7,12.7,92,0.00,CLR,,0.00,WeatherDisplay:10.37,2013-02-15 01:11:00,
2013-02-15 01:16:00,42.1,39.9,29.98,West,270,8.1,8.1,92,0.00,CLR,,0.00,WeatherDisplay:10.37,2013-02-15 01:16:00,
2013-02-15 01:21:00,42.1,39.9,29.99,WNW,292,6.9,6.9,92,0.00,CLR,,0.00,WeatherDisplay:10.37,2013-02-15 01:21:00,
2013-02-15 01:26:00,42.1,39.9,29.99,WNW,292,11.5,11.5,92,0.00,CLR,,0.00,WeatherDisplay:10.37,2013-02-15 01:26:00,
2013-02-15 01:31:00,42.1,39.9,29.99,WSW,248,9.2,9.2,92,0.00,CLR,,0.00,WeatherDisplay:10.37,2013-02-15 01:31:00,
2013-02-15 01:36:00,42.1,39.9,29.99,West,270,9.2,9.2,92,0.00,CLR,,0.00,WeatherDisplay:10.37,2013-02-15 01:36:00,
2013-02-15 01:41:00,42.1,39.9,29.99,West,270,9.2,9.2,92,0.00,CLR,,0.00,WeatherDisplay:10.37,2013-02-15 01:41:00,
2013-02-15 01:46:00,42.3,40.1,29.99,West,270,9.2,9.2,92,0.00,CLR,,0.00,WeatherDisplay:10.37,2013-02-15 01:46:00,
2013-02-15 01:51:00,42.3,40.1,29.99,WNW,292,13.8,13.8,92,0.00,CLR,,0.00,WeatherDisplay:10.37,2013-02-15 01:51:00,
2013-02-15 01:56:00,42.3,40.1,29.99,West,270,19.7,19.7,92,0.00,CLR,,0.00,WeatherDisplay:10.37,2013-02-15 01:56:00,
2013-02-15 02:01:00,42.1,39.9,29.99,West,270,16.1,16.1,92,0.00,CLR,,0.00,WeatherDisplay:10.37,2013-02-15 02:01:00,
2013-02-15 02:06:00,42.1,39.9,29.99,WNW,292,10.4,10.4,92,0.00,CLR,,0.00,WeatherDisplay:10.37,2013-02-15 02:06:00,
2013-02-15 02:11:00,42.1,39.9,29.99,WNW,292,11.5,11.5,92,0.00,CLR,,0.00,WeatherDisplay:10.37,2013-02-15 02:11:00,
2013-02-15 02:16:00,42.1,39.9,29.99,West,270,9.2,9.2,92,0.00,CLR,,0.00,WeatherDisplay:10.37,2013-02-15 02:16:00,
2013-02-15 02:21:00,42.1,39.9,29.99,West,270,14.3,14.3,92,0.00,CLR,,0.00,WeatherDisplay:10.37,2013-02-15 02:21:00,
2013-02-15 02:26:00,42.4,40.3,29.99,NW,315,18.4,18.4,92,0.00,CLR,,0.00,WeatherDisplay:10.37,2013-02-15 02:26:00,
2013-02-15 02:31:00,42.4,40.3,30.00,WNW,292,6.9,6.9,92,0.00,CLR,,0.00,WeatherDisplay:10.37,2013-02-15 02:31:00,
2013-02-15 02:36:00,42.4,40.3,30.00,WNW,292,10.4,10.4,92,0.00,CLR,,0.00,WeatherDisplay:10.37,2013-02-15 02:36:00,
2013-02-15 02:41:00,42.4,40.3,29.99,NW,315,10.4,10.4,92,0.00,CLR,,0.00,WeatherDisplay:10.37,2013-02-15 02:41:00,
2013-02-15 02:46:00,42.6,40.5,30.00,West,270,10.4,10.4,92,0.00,CLR,,0.00,WeatherDisplay:10.37,2013-02-15 02:46:00,
2013-02-15 02:51:00,42.6,40.5,30.00,WSW,248,12.7,12.7,92,0.00,CLR,,0.00,WeatherDisplay:10.37,2013-02-15 02:51:00,
2013-02-15 02:56:00,42.6,40.5,30.00,West,270,12.7,12.7,92,0.00,CLR,,0.00,WeatherDisplay:10.37,2013-02-15 02:56:00,
2013-02-15 03:01:00,42.6,40.5,30.00,WNW,292,5.8,6.4,92,0.00,CLR,,0.00,WeatherDisplay:10.37,2013-02-15 03:01:00,
2013-02-15 03:06:00,42.6,40.5,30.00,West,270,9.2,9.2,92,0.00,CLR,,0.00,WeatherDisplay:10.37,2013-02-15 03:06:00,
2013-02-15 03:11:00,42.6,40.5,30.00,West,270,8.0,8.0,92,0.00,CLR,,0.00,WeatherDisplay:10.37,2013-02-15 03:11:00,
2013-02-15 03:16:00,42.6,40.5,29.99,WNW,292,12.7,12.7,92,0.00,CLR,,0.00,WeatherDisplay:10.37,2013-02-15 03:16:00,
2013-02-15 03:21:00,42.6,40.5,29.99,WNW,292,10.4,10.4,92,0.00,CLR,,0.00,WeatherDisplay:10.37,2013-02-15 03:21:00,
2013-02-15 03:26:00,42.6,40.2,29.99,WNW,292,11.5,11.5,91,0.00,CLR,,0.00,WeatherDisplay:10.37,2013-02-15 03:26:00,
2013-02-15 03:31:00,42.4,40.0,29.99,NW,315,13.0,13.0,91,0.00,CLR,,0.00,WeatherDisplay:10.37,2013-02-15 03:31:00,
2013-02-15 03:36:00,42.4,40.0,29.99,WNW,292,10.4,10.4,91,0.00,CLR,,0.00,WeatherDisplay:10.37,2013-02-15 03:36:00,
2013-02-15 03:41:00,42.1,39.6,29.99,NW,315,10.4,10.4,91,0.00,CLR,,0.00,WeatherDisplay:10.37,2013-02-15 03:41:00,
2013-02-15 03:49:00,42.1,39.6,30.00,WNW,292,12.7,12.7,91,0.00,CLR,,0.00,WeatherDisplay:10.37,2013-02-15 03:49:00,
2013-02-15 03:54:00,41.9,39.5,30.00,WNW,292,4.6,5.8,91,0.00,CLR,,0.00,WeatherDisplay:10.37,2013-02-15 03:54:00,
2013-02-15 03:59:00,41.9,39.5,30.00,West,270,9.2,9.2,91,0.00,CLR,,0.00,WeatherDisplay:10.37,2013-02-15 03:59:00,
2013-02-15 04:04:00,41.9,39.5,30.00,West,270,10.4,10.4,91,0.00,CLR,,0.00,WeatherDisplay:10.37,2013-02-15 04:04:00,
2013-02-15 04:09:00,41.9,39.5,30.00,WNW,292,8.1,8.1,91,0.00,CLR,,0.00,WeatherDisplay:10.37,2013-02-15 04:09:00,
2013-02-15 04:14:00,41.9,39.5,30.00,West,270,5.8,5.8,91,0.00,CLR,,0.00,WeatherDisplay:10.37,2013-02-15 04:14:00,
2013-02-15 04:26:00,41.9,39.7,30.00,NW,315,6.9,6.9,92,0.00,CLR,,0.00,WeatherDisplay:10.37,2013-02-15 04:26:00,
2013-02-15 04:31:00,41.9,39.7,30.00,WNW,292,5.8,5.8,92,0.00,CLR,,0.00,WeatherDisplay:10.37,2013-02-15 04:31:00,
2013-02-15 04:36:00,41.7,39.3,30.00,WNW,292,8.7,8.7,91,0.00,CLR,,0.00,WeatherDisplay:10.37,2013-02-15 04:36:00,
2013-02-15 04:41:00,41.7,39.3,30.00,West,270,8.1,8.1,91,0.00,CLR,,0.00,WeatherDisplay:10.37,2013-02-15 04:41:00,
2013-02-15 04:46:00,41.5,39.1,30.00,WNW,292,6.9,6.9,91,0.00,CLR,,0.00,WeatherDisplay:10.37,2013-02-15 04:46:00,
2013-02-15 04:51:00,41.5,39.4,30.01,West,270,12.7,12.7,92,0.00,CLR,,0.00,WeatherDisplay:10.37,2013-02-15 04:51:00,
2013-02-15 04:56:00,41.4,38.9,30.01,WNW,292,11.8,11.8,91,0.00,CLR,,0.00,WeatherDisplay:10.37,2013-02-15 04:56:00,
2013-02-15 05:00:00,41.4,39.2,30.01,WNW,292,8.1,8.1,92,0.00,CLR,,0.00,WeatherDisplay:10.37,2013-02-15 05:00:00,
2013-02-15 05:05:00,41.4,38.9,30.01,West,270,8.1,8.3,91,0.00,CLR,,0.00,WeatherDisplay:10.37,2013-02-15 05:05:00,
2013-02-15 05:10:00,41.4,39.2,30.01,West,270,6.9,6.9,92,0.00,CLR,,0.00,WeatherDisplay:10.37,2013-02-15 05:10:00,
2013-02-15 05:15:00,41.4,39.2,30.01,West,270,7.8,7.8,92,0.00,CLR,,0.00,WeatherDisplay:10.37,2013-02-15 05:15:00,
2013-02-15 05:20:00,41.2,39.0,30.02,WNW,292,9.6,9.6,92,0.00,CLR,,0.00,WeatherDisplay:10.37,2013-02-15 05:20:00,
2013-02-15 05:25:00,41.4,39.2,30.02,WNW,292,4.6,4.6,92,0.00,CLR,,0.00,WeatherDisplay:10.37,2013-02-15 05:25:00,
2013-02-15 05:30:00,41.2,39.0,30.02,West,270,6.7,6.7,92,0.00,CLR,,0.00,WeatherDisplay:10.37,2013-02-15 05:30:00,
2013-02-15 05:35:00,41.2,39.0,30.02,West,270,5.8,5.8,92,0.00,CLR,,0.00,WeatherDisplay:10.37,2013-02-15 05:35:00,
2013-02-15 05:40:00,41.4,39.2,30.02,WNW,292,5.8,5.8,92,0.00,CLR,,0.00,WeatherDisplay:10.37,2013-02-15 05:40:00,
2013-02-15 05:46:00,41.4,39.2,30.02,WNW,292,4.6,4.6,92,0.00,CLR,,0.00,WeatherDisplay:10.37,2013-02-15 05:46:00,
2013-02-15 05:51:00,41.2,39.0,30.03,West,270,4.6,4.6,92,0.00,CLR,,0.00,WeatherDisplay:10.37,2013-02-15 05:51:00,
2013-02-15 05:56:00,41.2,39.0,30.03,WNW,292,3.5,3.5,92,0.00,CLR,,0.00,WeatherDisplay:10.37,2013-02-15 05:56:00,
2013-02-15 06:01:00,41.2,39.0,30.03,WNW,292,2.3,2.7,92,0.00,CLR,,0.00,WeatherDisplay:10.37,2013-02-15 06:01:00,
2013-02-15 06:06:00,41.2,39.0,30.03,West,270,3.5,3.5,92,0.00,CLR,,0.00,WeatherDisplay:10.37,2013-02-15 06:06:00,
2013-02-15 06:11:00,41.0,38.9,30.03,West,270,2.3,2.3,92,0.00,CLR,,0.00,WeatherDisplay:10.37,2013-02-15 06:11:00,
2013-02-15 06:16:00,40.8,38.7,30.03,WSW,248,3.5,3.5,92,0.00,CLR,,0.00,WeatherDisplay:10.37,2013-02-15 06:16:00,
2013-02-15 06:21:00,40.8,38.7,30.03,WSW,248,2.3,2.3,92,0.00,CLR,,0.00,WeatherDisplay:10.37,2013-02-15 06:21:00,
2013-02-15 06:26:00,40.8,38.7,30.03,WSW,248,2.3,2.3,92,0.00,CLR,,0.00,WeatherDisplay:10.37,2013-02-15 06:26:00,
2013-02-15 06:31:00,40.8,38.7,30.04,SSE,158,3.5,3.5,92,0.00,CLR,,0.00,WeatherDisplay:10.37,2013-02-15 06:31:00,
2013-02-15 06:36:00,40.8,38.7,30.04,SSE,158,3.5,3.5,92,0.00,CLR,,0.00,WeatherDisplay:10.37,2013-02-15 06:36:00,
2013-02-15 06:41:00,40.6,38.5,30.04,SSE,158,3.5,3.5,92,0.00,CLR,,0.00,WeatherDisplay:10.37,2013-02-15 06:41:00,
2013-02-15 06:46:00,40.6,38.5,30.04,SSE,158,1.1,1.1,92,0.00,CLR,,0.00,WeatherDisplay:10.37,2013-02-15 06:46:00,
2013-02-15 06:51:00,40.5,38.3,30.04,SSE,158,0.0,0.0,92,0.00,CLR,,0.00,WeatherDisplay:10.37,2013-02-15 06:51:00,
2013-02-15 06:56:00,40.3,38.1,30.04,SSE,158,0.0,0.0,92,0.00,CLR,,0.00,WeatherDisplay:10.37,2013-02-15 06:56:00,
2013-02-15 07:01:00,40.3,38.1,30.04,SSE,158,2.3,2.3,92,0.00,CLR,,0.00,WeatherDisplay:10.37,2013-02-15 07:01:00,
2013-02-15 07:06:00,40.1,38.0,30.04,SSE,158,1.1,1.1,92,0.00,CLR,,0.00,WeatherDisplay:10.37,2013-02-15 07:06:00,
2013-02-15 07:11:00,39.9,37.8,30.04,SSE,158,1.1,1.1,92,0.00,CLR,,0.00,WeatherDisplay:10.37,2013-02-15 07:11:00,
2013-02-15 07:16:00,39.9,37.8,30.04,SSE,158,0.0,0.0,92,0.00,CLR,,0.00,WeatherDisplay:10.37,2013-02-15 07:16:00,
2013-02-15 07:21:00,39.7,37.6,30.05,SSE,158,0.0,0.0,92,0.00,CLR,,0.00,WeatherDisplay:10.37,2013-02-15 07:21:00,
2013-02-15 07:26:00,39.7,37.6,30.05,SSE,158,0.0,0.0,92,0.00,CLR,,0.00,WeatherDisplay:10.37,2013-02-15 07:26:00,
2013-02-15 07:31:00,39.6,37.4,30.05,SSE,158,0.0,0.0,92,0.00,CLR,,0.00,WeatherDisplay:10.37,2013-02-15 07:31:00,
2013-02-15 07:36:00,39.4,37.2,30.05,SSE,158,0.0,0.0,92,0.00,CLR,,0.00,WeatherDisplay:10.37,2013-02-15 07:36:00,
2013-02-15 07:41:00,39.4,37.2,30.05,SSE,158,0.0,0.0,92,0.00,CLR,,0.00,WeatherDisplay:10.37,2013-02-15 07:41:00,
2013-02-15 07:46:00,39.4,37.2,30.05,SSE,158,1.1,1.1,92,0.00,CLR,,0.00,WeatherDisplay:10.37,2013-02-15 07:46:00,
2013-02-15 07:51:00,39.4,37.2,30.05,SSE,158,3.5,3.5,92,0.00,CLR,,0.00,WeatherDisplay:10.37,2013-02-15 07:51:00,
2013-02-15 07:56:00,39.6,37.4,30.06,SSE,158,1.1,1.1,92,0.00,CLR,,0.00,WeatherDisplay:10.37,2013-02-15 07:56:00,
2013-02-15 08:01:00,39.6,37.4,30.06,SSE,158,1.1,1.1,92,0.00,CLR,,0.00,WeatherDisplay:10.37,2013-02-15 08:01:00,
2013-02-15 08:06:00,39.7,37.6,30.06,SSE,158,1.3,1.3,92,0.00,CLR,,0.00,WeatherDisplay:10.37,2013-02-15 08:06:00,
2013-02-15 08:11:00,39.7,37.6,30.06,SSE,158,0.0,0.1,92,0.00,CLR,,0.00,WeatherDisplay:10.37,2013-02-15 08:11:00,
2013-02-15 08:16:00,39.6,37.4,30.06,West,270,2.3,2.3,92,0.00,CLR,,0.00,WeatherDisplay:10.37,2013-02-15 08:16:00,
2013-02-15 08:21:00,39.6,37.4,30.06,WSW,248,2.3,2.3,92,0.00,CLR,,0.00,WeatherDisplay:10.37,2013-02-15 08:21:00,
2013-02-15 08:26:00,39.6,37.4,30.07,WSW,248,1.3,0.0,92,0.00,CLR,,0.00,WeatherDisplay:10.37,2013-02-15 08:26:00,
2013-02-15 08:31:00,39.7,37.6,30.07,ENE,68,0.0,0.0,92,0.00,CLR,,0.00,WeatherDisplay:10.37,2013-02-15 08:31:00,
2013-02-15 08:36:00,39.7,37.6,30.07,ENE,68,0.0,0.0,92,0.00,CLR,,0.00,WeatherDisplay:10.37,2013-02-15 08:36:00,
2013-02-15 08:41:00,39.7,37.6,30.07,East,90,2.3,2.3,92,0.00,CLR,,0.00,WeatherDisplay:10.37,2013-02-15 08:41:00,
2013-02-15 08:46:00,39.9,37.8,30.08,SSE,158,3.5,3.5,92,0.00,CLR,,0.00,WeatherDisplay:10.37,2013-02-15 08:46:00,
2013-02-15 08:51:00,40.3,38.1,30.08,SSE,158,3.5,3.5,92,0.00,CLR,,0.00,WeatherDisplay:10.37,2013-02-15 08:51:00,
2013-02-15 08:56:00,40.6,38.5,30.08,SSE,158,0.0,0.0,92,0.00,CLR,,0.00,WeatherDisplay:10.37,2013-02-15 08:56:00,
2013-02-15 09:01:00,40.8,38.7,30.08,SSE,158,1.1,0.0,92,0.00,CLR,,0.00,WeatherDisplay:10.37,2013-02-15 09:01:00,
2013-02-15 09:06:00,41.2,39.3,30.08,SSE,158,3.8,3.8,93,0.00,CLR,,0.00,WeatherDisplay:10.37,2013-02-15 09:06:00,
2013-02-15 09:11:00,41.5,39.7,30.08,SSE,158,4.6,4.6,93,0.00,CLR,,0.00,WeatherDisplay:10.37,2013-02-15 09:11:00,
2013-02-15 09:16:00,42.1,40.2,30.09,SSE,158,4.2,4.2,93,0.00,CLR,,0.00,WeatherDisplay:10.37,2013-02-15 09:16:00,
2013-02-15 09:21:00,42.6,40.7,30.08,South,180,3.5,3.5,93,0.00,CLR,,0.00,WeatherDisplay:10.37,2013-02-15 09:21:00,
2013-02-15 09:26:00,43.3,41.5,30.08,South,180,3.8,3.8,93,0.00,CLR,,0.00,WeatherDisplay:10.37,2013-02-15 09:26:00,
2013-02-15 09:31:00,43.5,41.6,30.08,South,180,3.5,3.5,93,0.00,CLR,,0.00,WeatherDisplay:10.37,2013-02-15 09:31:00,
2013-02-15 09:36:00,43.9,41.7,30.09,WSW,248,2.0,2.0,92,0.00,CLR,,0.00,WeatherDisplay:10.37,2013-02-15 09:36:00,
2013-02-15 09:41:00,44.4,42.2,30.09,SW,225,1.1,1.1,92,0.00,CLR,,0.00,WeatherDisplay:10.37,2013-02-15 09:41:00,
2013-02-15 09:46:00,44.6,42.4,30.09,West,270,4.0,4.0,92,0.00,CLR,,0.00,WeatherDisplay:10.37,2013-02-15 09:46:00,
2013-02-15 09:51:00,44.8,42.6,30.09,WSW,248,4.6,4.6,92,0.00,CLR,,0.00,WeatherDisplay:10.37,2013-02-15 09:51:00,
2013-02-15 09:56:00,44.8,42.6,30.09,SW,225,5.8,5.8,92,0.00,CLR,,0.00,WeatherDisplay:10.37,2013-02-15 09:56:00,
2013-02-15 10:01:00,45.0,42.8,30.10,WSW,248,6.9,6.9,92,0.00,CLR,,0.00,WeatherDisplay:10.37,2013-02-15 10:01:00,
2013-02-15 10:06:00,45.0,42.8,30.10,West,270,5.8,5.8,92,0.00,CLR,,0.00,WeatherDisplay:10.37,2013-02-15 10:06:00,
2013-02-15 10:11:00,44.8,42.6,30.09,WSW,248,4.6,4.6,92,0.00,CLR,,0.00,WeatherDisplay:10.37,2013-02-15 10:11:00,
2013-02-15 10:16:00,44.6,42.4,30.10,West,270,10.4,10.4,92,0.00,CLR,,0.00,WeatherDisplay:10.37,2013-02-15 10:16:00,
2013-02-15 10:21:00,44.4,42.2,30.10,WSW,248,12.7,12.7,92,0.00,CLR,,0.00,WeatherDisplay:10.37,2013-02-15 10:21:00,
2013-02-15 10:26:00,44.4,42.2,30.10,WNW,292,10.4,10.4,92,0.00,CLR,,0.00,WeatherDisplay:10.37,2013-02-15 10:26:00,
2013-02-15 10:31:00,44.8,42.6,30.10,West,270,6.9,6.9,92,0.00,CLR,,0.00,WeatherDisplay:10.37,2013-02-15 10:31:00,
2013-02-15 10:36:00,45.1,43.0,30.11,West,270,8.7,8.7,92,0.00,CLR,,0.00,WeatherDisplay:10.37,2013-02-15 10:36:00,
2013-02-15 10:41:00,45.7,43.5,30.11,West,270,10.4,10.4,92,0.00,CLR,,0.00,WeatherDisplay:10.37,2013-02-15 10:41:00,
2013-02-15 10:46:00,46.2,44.0,30.11,NNW,338,9.2,9.2,92,0.00,CLR,,0.00,WeatherDisplay:10.37,2013-02-15 10:46:00,
2013-02-15 10:51:00,46.6,44.4,30.11,WSW,248,11.5,11.5,92,0.00,CLR,,0.00,WeatherDisplay:10.37,2013-02-15 10:51:00,
2013-02-15 10:56:00,46.6,44.4,30.11,WNW,292,6.9,6.9,92,0.00,CLR,,0.00,WeatherDisplay:10.37,2013-02-15 10:56:00,
2013-02-15 11:01:00,46.6,44.1,30.11,West,270,6.9,6.9,91,0.00,CLR,,0.00,WeatherDisplay:10.37,2013-02-15 11:01:00,
2013-02-15 11:06:00,46.9,44.4,30.11,West,270,4.6,4.6,91,0.00,CLR,,0.00,WeatherDisplay:10.37,2013-02-15 11:06:00,
2013-02-15 11:11:00,47.1,44.6,30.11,WNW,292,3.6,3.6,91,0.00,CLR,,0.00,WeatherDisplay:10.37,2013-02-15 11:11:00,
2013-02-15 11:16:00,47.5,45.0,30.11,WSW,248,12.7,12.7,91,0.00,CLR,,0.00,WeatherDisplay:10.37,2013-02-15 11:16:00,
2013-02-15 11:21:00,47.7,45.2,30.11,WNW,292,2.3,4.1,91,0.00,CLR,,0.00,WeatherDisplay:10.37,2013-02-15 11:21:00,
2013-02-15 11:26:00,47.8,45.0,30.11,NW,315,12.7,12.7,90,0.00,CLR,,0.00,WeatherDisplay:10.37,2013-02-15 11:26:00,
2013-02-15 11:31:00,47.8,45.0,30.11,WNW,292,11.4,11.4,90,0.00,CLR,,0.00,WeatherDisplay:10.37,2013-02-15 11:31:00,
2013-02-15 11:36:00,48.0,44.9,30.11,West,270,10.4,10.4,89,0.00,CLR,,0.00,WeatherDisplay:10.37,2013-02-15 11:36:00,
2013-02-15 11:41:00,48.0,44.9,30.12,West,270,5.8,7.0,89,0.00,CLR,,0.00,WeatherDisplay:10.37,2013-02-15 11:41:00,
2013-02-15 11:47:00,48.0,44.9,30.12,NW,315,10.4,10.4,89,0.00,CLR,,0.00,WeatherDisplay:10.37,2013-02-15 11:47:00,
2013-02-15 11:52:00,48.0,44.9,30.12,NNW,338,11.5,11.5,89,0.00,CLR,,0.00,WeatherDisplay:10.37,2013-02-15 11:52:00,
2013-02-15 11:57:00,48.0,44.9,30.12,North,0,8.1,8.1,89,0.00,CLR,,0.00,WeatherDisplay:10.37,2013-02-15 11:57:00,
2013-02-15 12:02:00,47.5,44.1,30.12,NW,315,8.1,8.1,88,0.00,CLR,,0.00,WeatherDisplay:10.37,2013-02-15 12:02:00,
2013-02-15 12:07:00,47.3,43.9,30.12,NNW,338,6.9,6.9,88,0.00,CLR,,0.00,WeatherDisplay:10.37,2013-02-15 12:07:00,
2013-02-15 12:12:00,47.5,44.1,30.12,WNW,292,10.4,10.4,88,0.00,CLR,,0.00,WeatherDisplay:10.37,2013-02-15 12:12:00,
2013-02-15 12:17:00,47.7,44.3,30.11,WNW,292,10.4,10.4,88,0.00,CLR,,0.00,WeatherDisplay:10.37,2013-02-15 12:17:00,
2013-02-15 12:22:00,47.5,44.1,30.12,NW,315,8.5,8.5,88,0.00,CLR,,0.00,WeatherDisplay:10.37,2013-02-15 12:22:00,
2013-02-15 12:27:00,47.1,43.7,30.12,WNW,292,4.6,4.6,88,0.00,CLR,,0.00,WeatherDisplay:10.37,2013-02-15 12:27:00,
2013-02-15 12:32:00,47.1,43.7,30.13,West,270,6.9,6.9,88,0.00,CLR,,0.00,WeatherDisplay:10.37,2013-02-15 12:32:00,
2013-02-15 12:37:00,47.3,43.9,30.12,NNW,338,6.9,6.9,88,0.00,CLR,,0.00,WeatherDisplay:10.37,2013-02-15 12:37:00,
2013-02-15 12:42:00,47.8,44.5,30.12,WNW,292,12.7,12.7,88,0.00,CLR,,0.00,WeatherDisplay:10.37,2013-02-15 12:42:00,
2013-02-15 12:47:00,48.0,44.6,30.12,NNW,338,9.4,9.4,88,0.00,CLR,,0.00,WeatherDisplay:10.37,2013-02-15 12:47:00,
2013-02-15 12:52:00,47.8,44.2,30.13,WSW,248,3.5,3.5,87,0.00,CLR,,0.00,WeatherDisplay:10.37,2013-02-15 12:52:00,
2013-02-15 12:57:00,47.7,44.0,30.12,NW,315,8.1,8.1,87,0.00,CLR,,0.00,WeatherDisplay:10.37,2013-02-15 12:57:00,
2013-02-15 13:02:00,47.5,43.8,30.12,NNW,338,6.5,6.5,87,0.00,CLR,,0.00,WeatherDisplay:10.37,2013-02-15 13:02:00,
2013-02-15 13:07:00,47.5,43.8,30.12,NW,315,15.0,15.0,87,0.00,CLR,,0.00,WeatherDisplay:10.37,2013-02-15 13:07:00,
2013-02-15 13:12:00,47.3,43.6,30.12,WNW,292,11.5,11.5,87,0.00,CLR,,0.00,WeatherDisplay:10.37,2013-02-15 13:12:00,
2013-02-15 13:17:00,47.1,43.4,30.13,NW,315,8.1,8.1,87,0.00,CLR,,0.00,WeatherDisplay:10.37,2013-02-15 13:17:00,
2013-02-15 13:22:00,47.1,43.4,30.12,NW,315,9.4,9.4,87,0.00,CLR,,0.00,WeatherDisplay:10.37,2013-02-15 13:22:00,
2013-02-15 13:27:00,47.1,43.4,30.12,WNW,292,10.7,10.7,87,0.00,CLR,,0.00,WeatherDisplay:10.37,2013-02-15 13:27:00,
2013-02-15 13:32:00,47.1,43.4,30.13,WNW,292,6.9,6.9,87,0.00,CLR,,0.00,WeatherDisplay:10.37,2013-02-15 13:32:00,
2013-02-15 13:37:00,47.3,43.6,30.13,NW,315,12.7,12.7,87,0.00,CLR,,0.00,WeatherDisplay:10.37,2013-02-15 13:37:00,
2013-02-15 13:42:00,47.3,43.6,30.13,West,270,10.4,10.4,87,0.00,CLR,,0.00,WeatherDisplay:10.37,2013-02-15 13:42:00,
2013-02-15 13:47:00,47.1,43.4,30.14,NW,315,5.8,5.8,87,0.00,CLR,,0.00,WeatherDisplay:10.37,2013-02-15 13:47:00,
2013-02-15 13:52:00,47.1,43.4,30.13,NW,315,6.9,6.9,87,0.00,CLR,,0.00,WeatherDisplay:10.37,2013-02-15 13:52:00,
2013-02-15 13:57:00,47.1,43.4,30.12,West,270,11.5,11.5,87,0.00,CLR,,0.00,WeatherDisplay:10.37,2013-02-15 13:57:00,
2013-02-15 14:02:00,46.9,43.3,30.12,WSW,248,11.5,11.5,87,0.00,CLR,,0.00,WeatherDisplay:10.37,2013-02-15 14:02:00,
2013-02-15 14:07:00,46.9,43.3,30.13,NW,315,8.1,8.1,87,0.00,CLR,,0.00,WeatherDisplay:10.37,2013-02-15 14:07:00,
2013-02-15 14:12:00,46.9,43.3,30.13,NW,315,4.6,4.6,87,0.00,CLR,,0.00,WeatherDisplay:10.37,2013-02-15 14:12:00,
2013-02-15 14:17:00,46.9,43.3,30.12,WNW,292,10.4,10.4,87,0.00,CLR,,0.00,WeatherDisplay:10.37,2013-02-15 14:17:00,
2013-02-15 14:22:00,47.1,43.4,30.12,WSW,248,5.8,5.8,87,0.00,CLR,,0.00,WeatherDisplay:10.37,2013-02-15 14:22:00,
2013-02-15 14:27:00,47.1,43.4,30.13,WNW,292,3.5,3.5,87,0.00,CLR,,0.00,WeatherDisplay:10.37,2013-02-15 14:27:00,
2013-02-15 14:32:00,47.1,43.4,30.12,NNW,338,5.8,5.8,87,0.00,CLR,,0.00,WeatherDisplay:10.37,2013-02-15 14:32:00,
2013-02-15 14:37:00,47.1,43.4,30.12,WNW,292,11.5,11.5,87,0.00,CLR,,0.00,WeatherDisplay:10.37,2013-02-15 14:37:00,
2013-02-15 14:42:00,47.1,43.4,30.12,NW,315,8.1,8.1,87,0.00,CLR,,0.00,WeatherDisplay:10.37,2013-02-15 14:42:00,
2013-02-15 14:47:00,47.1,43.4,30.12,NW,315,5.8,5.8,87,0.00,CLR,,0.00,WeatherDisplay:10.37,2013-02-15 14:47:00,
2013-02-15 14:52:00,46.9,43.3,30.13,WNW,292,3.5,3.5,87,0.00,CLR,,0.00,WeatherDisplay:10.37,2013-02-15 14:52:00,
2013-02-15 14:57:00,46.9,43.3,30.13,WNW,292,6.3,6.3,87,0.00,CLR,,0.00,WeatherDisplay:10.37,2013-02-15 14:57:00,
2013-02-15 15:02:00,47.1,43.4,30.12,West,270,8.1,8.1,87,0.00,CLR,,0.00,WeatherDisplay:10.37,2013-02-15 15:02:00,
2013-02-15 15:07:00,46.9,43.3,30.13,NW,315,8.1,8.1,87,0.00,CLR,,0.00,WeatherDisplay:10.37,2013-02-15 15:07:00,
2013-02-15 15:12:00,46.9,43.3,30.13,West,270,3.5,3.5,87,0.00,CLR,,0.00,WeatherDisplay:10.37,2013-02-15 15:12:00,
2013-02-15 15:17:00,46.8,43.1,30.12,NNW,338,3.5,3.5,87,0.00,CLR,,0.00,WeatherDisplay:10.37,2013-02-15 15:17:00,
2013-02-15 15:22:00,46.8,43.1,30.13,NNW,338,5.8,5.8,87,0.00,CLR,,0.00,WeatherDisplay:10.37,2013-02-15 15:22:00,
2013-02-15 15:27:00,46.8,43.1,30.13,NW,315,4.6,4.6,87,0.00,CLR,,0.00,WeatherDisplay:10.37,2013-02-15 15:27:00,
2013-02-15 15:32:00,46.8,43.1,30.13,West,270,2.5,2.5,87,0.00,CLR,,0.00,WeatherDisplay:10.37,2013-02-15 15:32:00,
2013-02-15 15:37:00,46.8,43.1,30.13,WNW,292,8.1,8.1,87,0.00,CLR,,0.00,WeatherDisplay:10.37,2013-02-15 15:37:00,
2013-02-15 15:42:00,46.8,43.1,30.13,WNW,292,2.3,2.4,87,0.00,CLR,,0.00,WeatherDisplay:10.37,2013-02-15 15:42:00,
2013-02-15 15:47:00,46.8,43.1,30.14,WNW,292,5.8,5.8,87,0.00,CLR,,0.00,WeatherDisplay:10.37,2013-02-15 15:47:00,
2013-02-15 15:52:00,46.8,43.1,30.14,WSW,248,4.6,4.6,87,0.00,CLR,,0.00,WeatherDisplay:10.37,2013-02-15 15:52:00,
2013-02-15 15:57:00,46.8,43.1,30.14,WNW,292,4.6,4.6,87,0.00,CLR,,0.00,WeatherDisplay:10.37,2013-02-15 15:57:00,
2013-02-15 16:02:00,46.8,43.1,30.14,West,270,9.2,9.2,87,0.00,CLR,,0.00,WeatherDisplay:10.37,2013-02-15 16:02:00,
2013-02-15 16:07:00,46.6,42.9,30.14,West,270,3.5,3.5,87,0.00,CLR,,0.00,WeatherDisplay:10.37,2013-02-15 16:07:00,
2013-02-15 16:12:00,46.6,43.2,30.14,West,270,3.5,3.5,88,0.00,CLR,,0.00,WeatherDisplay:10.37,2013-02-15 16:12:00,
2013-02-15 16:17:00,46.6,43.2,30.14,West,270,5.8,5.8,88,0.00,CLR,,0.00,WeatherDisplay:10.37,2013-02-15 16:17:00,
2013-02-15 16:22:00,46.6,43.2,30.14,West,270,4.6,4.6,88,0.00,CLR,,0.00,WeatherDisplay:10.37,2013-02-15 16:22:00,
2013-02-15 16:27:00,46.4,43.0,30.14,WSW,248,5.8,5.8,88,0.00,CLR,,0.00,WeatherDisplay:10.37,2013-02-15 16:27:00,
2013-02-15 16:32:00,46.2,42.9,30.14,SW,225,5.8,5.8,88,0.00,CLR,,0.00,WeatherDisplay:10.37,2013-02-15 16:32:00,
2013-02-15 16:37:00,46.2,42.9,30.14,WSW,248,1.1,1.3,88,0.00,CLR,,0.00,WeatherDisplay:10.37,2013-02-15 16:37:00,
2013-02-15 16:42:00,46.0,42.7,30.15,SW,225,2.3,2.3,88,0.00,CLR,,0.00,WeatherDisplay:10.37,2013-02-15 16:42:00,
2013-02-15 16:47:00,46.0,42.7,30.15,WSW,248,6.9,7.2,88,0.00,CLR,,0.00,WeatherDisplay:10.37,2013-02-15 16:47:00,
2013-02-15 16:52:00,46.0,42.7,30.15,West,270,3.8,4.5,88,0.00,CLR,,0.00,WeatherDisplay:10.37,2013-02-15 16:52:00,
2013-02-15 16:57:00,45.9,42.5,30.15,West,270,5.8,5.8,88,0.00,CLR,,0.00,WeatherDisplay:10.37,2013-02-15 16:57:00,
2013-02-15 17:02:00,45.7,42.3,30.15,WSW,248,3.5,3.5,88,0.00,CLR,,0.00,WeatherDisplay:10.37,2013-02-15 17:02:00,
2013-02-15 17:07:00,45.7,42.3,30.15,West,270,5.8,5.8,88,0.00,CLR,,0.00,WeatherDisplay:10.37,2013-02-15 17:07:00,
2013-02-15 17:12:00,45.5,42.2,30.15,WNW,292,11.5,11.5,88,0.00,CLR,,0.00,WeatherDisplay:10.37,2013-02-15 17:12:00,
2013-02-15 17:17:00,45.5,42.2,30.15,SW,225,5.8,5.8,88,0.00,CLR,,0.00,WeatherDisplay:10.37,2013-02-15 17:17:00,
2013-02-15 17:22:00,45.3,42.0,30.15,WSW,248,5.8,5.8,88,0.00,CLR,,0.00,WeatherDisplay:10.37,2013-02-15 17:22:00,
2013-02-15 17:27:00,45.1,41.8,30.15,West,270,4.9,4.9,88,0.00,CLR,,0.00,WeatherDisplay:10.37,2013-02-15 17:27:00,
2013-02-15 17:33:00,45.0,41.6,30.16,WSW,248,5.8,5.8,88,0.00,CLR,,0.00,WeatherDisplay:10.37,2013-02-15 17:33:00,
2013-02-15 17:38:00,44.8,41.4,30.16,WSW,248,9.2,9.2,88,0.00,CLR,,0.00,WeatherDisplay:10.37,2013-02-15 17:38:00,
2013-02-15 17:43:00,44.4,41.1,30.16,WSW,248,4.9,4.9,88,0.00,CLR,,0.00,WeatherDisplay:10.37,2013-02-15 17:43:00,
2013-02-15 17:48:00,44.4,41.1,30.16,WSW,248,10.4,10.4,88,0.00,CLR,,0.00,WeatherDisplay:10.37,2013-02-15 17:48:00,
2013-02-15 17:53:00,44.2,41.2,30.16,SW,225,3.5,3.5,89,0.00,CLR,,0.00,WeatherDisplay:10.37,2013-02-15 17:53:00,
2013-02-15 17:58:00,43.9,40.6,30.16,WSW,248,3.5,3.5,88,0.00,CLR,,0.00,WeatherDisplay:10.37,2013-02-15 17:58:00,
2013-02-15 18:03:00,43.7,40.7,30.17,West,270,4.6,4.6,89,0.00,CLR,,0.00,WeatherDisplay:10.37,2013-02-15 18:03:00,
2013-02-15 18:08:00,43.7,40.7,30.16,West,270,3.5,3.5,89,0.00,CLR,,0.00,WeatherDisplay:10.37,2013-02-15 18:08:00,
2013-02-15 18:13:00,43.5,40.5,30.17,WSW,248,4.6,4.6,89,0.00,CLR,,0.00,WeatherDisplay:10.37,2013-02-15 18:13:00,
2013-02-15 18:18:00,43.5,40.5,30.17,SW,225,2.3,2.3,89,0.00,CLR,,0.00,WeatherDisplay:10.37,2013-02-15 18:18:00,
2013-02-15 18:23:00,43.3,40.3,30.17,WSW,248,1.1,1.1,89,0.00,CLR,,0.00,WeatherDisplay:10.37,2013-02-15 18:23:00,
2013-02-15 18:28:00,43.3,40.3,30.17,WSW,248,3.5,3.5,89,0.00,CLR,,0.00,WeatherDisplay:10.37,2013-02-15 18:28:00,
2013-02-15 18:33:00,43.2,40.1,30.17,WSW,248,3.5,3.5,89,0.00,CLR,,0.00,WeatherDisplay:10.37,2013-02-15 18:33:00,
2013-02-15 18:38:00,43.2,40.1,30.17,WSW,248,2.3,2.3,89,0.00,CLR,,0.00,WeatherDisplay:10.37,2013-02-15 18:38:00,
2013-02-15 18:43:00,43.0,40.0,30.17,SW,225,3.5,3.5,89,0.00,CLR,,0.00,WeatherDisplay:10.37,2013-02-15 18:43:00,
2013-02-15 18:48:00,43.0,40.0,30.17,SW,225,0.0,0.0,89,0.00,CLR,,0.00,WeatherDisplay:10.37,2013-02-15 18:48:00,
2013-02-15 18:53:00,43.0,40.0,30.18,SW,225,0.0,0.0,89,0.00,CLR,,0.00,WeatherDisplay:10.37,2013-02-15 18:53:00,
2013-02-15 18:58:00,42.6,39.6,30.18,SW,225,0.0,0.0,89,0.00,CLR,,0.00,WeatherDisplay:10.37,2013-02-15 18:58:00,
2013-02-15 19:03:00,42.6,39.6,30.17,SW,225,0.0,0.0,89,0.00,CLR,,0.00,WeatherDisplay:10.37,2013-02-15 19:03:00,
2013-02-15 19:08:00,42.6,39.6,30.17,SW,225,0.0,0.0,89,0.00,CLR,,0.00,WeatherDisplay:10.37,2013-02-15 19:08:00,
2013-02-15 19:13:00,42.6,39.9,30.17,SW,225,0.0,0.0,90,0.00,CLR,,0.00,WeatherDisplay:10.37,2013-02-15 19:13:00,
2013-02-15 19:18:00,42.4,39.7,30.18,SW,225,0.0,0.0,90,0.00,CLR,,0.00,WeatherDisplay:10.37,2013-02-15 19:18:00,
2013-02-15 19:23:00,42.4,39.7,30.18,SW,225,0.0,0.0,90,0.00,CLR,,0.00,WeatherDisplay:10.37,2013-02-15 19:23:00,
2013-02-15 19:28:00,42.1,39.4,30.18,SW,225,1.1,0.0,90,0.00,CLR,,0.00,WeatherDisplay:10.37,2013-02-15 19:28:00,
2013-02-15 19:33:00,42.1,39.4,30.18,SW,225,0.0,0.0,90,0.00,CLR,,0.00,WeatherDisplay:10.37,2013-02-15 19:33:00,
2013-02-15 19:38:00,41.9,39.2,30.18,SW,225,0.0,0.0,90,0.00,CLR,,0.00,WeatherDisplay:10.37,2013-02-15 19:38:00,
2013-02-15 19:43:00,41.7,39.0,30.18,SW,225,0.0,0.0,90,0.00,CLR,,0.00,WeatherDisplay:10.37,2013-02-15 19:43:00,
2013-02-15 19:48:00,41.7,39.0,30.18,SW,225,0.0,0.0,90,0.00,CLR,,0.00,WeatherDisplay:10.37,2013-02-15 19:48:00,
2013-02-15 19:53:00,41.5,38.8,30.18,SW,225,1.1,0.0,90,0.00,CLR,,0.00,WeatherDisplay:10.37,2013-02-15 19:53:00,
2013-02-15 19:58:00,41.5,38.8,30.18,SW,225,0.0,0.0,90,0.00,CLR,,0.00,WeatherDisplay:10.37,2013-02-15 19:58:00,
2013-02-15 20:03:00,41.5,38.8,30.18,SW,225,0.0,0.0,90,0.00,CLR,,0.00,WeatherDisplay:10.37,2013-02-15 20:03:00,
2013-02-15 20:08:00,41.5,38.8,30.18,SW,225,0.0,0.0,90,0.00,CLR,,0.00,WeatherDisplay:10.37,2013-02-15 20:08:00,
2013-02-15 20:13:00,41.5,38.8,30.18,SW,225,0.0,0.0,90,0.00,CLR,,0.00,WeatherDisplay:10.37,2013-02-15 20:13:00,
2013-02-15 20:18:00,41.5,38.8,30.19,SW,225,0.0,0.0,90,0.00,CLR,,0.00,WeatherDisplay:10.37,2013-02-15 20:18:00,
2013-02-15 20:23:00,41.5,39.1,30.18,SW,225,0.0,0.0,91,0.00,CLR,,0.00,WeatherDisplay:10.37,2013-02-15 20:23:00,
2013-02-15 20:28:00,41.5,38.8,30.18,SW,225,0.0,0.0,90,0.00,CLR,,0.00,WeatherDisplay:10.37,2013-02-15 20:28:00,
2013-02-15 20:33:00,41.5,39.1,30.18,SW,225,0.0,0.0,91,0.00,CLR,,0.00,WeatherDisplay:10.37,2013-02-15 20:33:00,
2013-02-15 20:38:00,41.5,39.1,30.18,SW,225,0.0,0.0,91,0.00,CLR,,0.00,WeatherDisplay:10.37,2013-02-15 20:38:00,
2013-02-15 20:43:00,41.5,39.1,30.18,SW,225,1.1,0.0,91,0.00,CLR,,0.00,WeatherDisplay:10.37,2013-02-15 20:43:00,
2013-02-15 20:48:00,41.5,39.1,30.18,SW,225,1.1,1.1,91,0.00,CLR,,0.00,WeatherDisplay:10.37,2013-02-15 20:48:00,
2013-02-15 20:53:00,41.5,39.1,30.18,SW,225,1.1,0.0,91,0.00,CLR,,0.00,WeatherDisplay:10.37,2013-02-15 20:53:00,
2013-02-15 20:58:00,41.7,39.3,30.18,SW,225,0.0,0.2,91,0.00,CLR,,0.00,WeatherDisplay:10.37,2013-02-15 20:58:00,
2013-02-15 21:03:00,41.7,39.3,30.19,SSW,202,1.1,1.1,91,0.00,CLR,,0.00,WeatherDisplay:10.37,2013-02-15 21:03:00,
2013-02-15 21:08:00,41.9,39.5,30.18,SSW,202,2.3,2.3,91,0.00,CLR,,0.00,WeatherDisplay:10.37,2013-02-15 21:08:00,
2013-02-15 21:13:00,42.1,39.6,30.18,SSW,202,0.0,0.0,91,0.00,CLR,,0.00,WeatherDisplay:10.37,2013-02-15 21:13:00,
2013-02-15 21:18:00,42.1,39.6,30.19,SSW,202,1.1,1.1,91,0.00,CLR,,0.00,WeatherDisplay:10.37,2013-02-15 21:18:00,
2013-02-15 21:23:00,42.1,39.6,30.18,SSW,202,3.5,3.5,91,0.00,CLR,,0.00,WeatherDisplay:10.37,2013-02-15 21:23:00,
2013-02-15 21:29:00,42.1,39.6,30.18,South,180,2.3,2.3,91,0.00,CLR,,0.00,WeatherDisplay:10.37,2013-02-15 21:29:00,
2013-02-15 21:34:00,42.1,39.6,30.19,SSE,158,1.1,1.1,91,0.00,CLR,,0.00,WeatherDisplay:10.37,2013-02-15 21:34:00,
2013-02-15 21:39:00,42.1,39.6,30.19,SSE,158,0.0,0.0,91,0.00,CLR,,0.00,WeatherDisplay:10.37,2013-02-15 21:39:00,
2013-02-15 21:44:00,42.1,39.6,30.19,SSE,158,0.0,0.0,91,0.00,CLR,,0.00,WeatherDisplay:10.37,2013-02-15 21:44:00,
2013-02-15 21:49:00,42.1,39.6,30.19,SSE,158,0.0,0.0,91,0.00,CLR,,0.00,WeatherDisplay:10.37,2013-02-15 21:49:00,
2013-02-15 21:54:00,41.9,39.5,30.19,SSE,158,0.0,0.0,91,0.00,CLR,,0.00,WeatherDisplay:10.37,2013-02-15 21:54:00,
2013-02-15 21:59:00,41.7,39.3,30.19,SSE,158,0.0,0.0,91,0.00,CLR,,0.00,WeatherDisplay:10.37,2013-02-15 21:59:00,
2013-02-15 22:04:00,41.5,39.1,30.19,SSE,158,0.0,0.0,91,0.00,CLR,,0.00,WeatherDisplay:10.37,2013-02-15 22:04:00,
2013-02-15 22:09:00,41.5,39.1,30.19,SSE,158,0.0,0.0,91,0.00,CLR,,0.00,WeatherDisplay:10.37,2013-02-15 22:09:00,
2013-02-15 22:14:00,41.5,39.1,30.19,SSE,158,0.0,0.0,91,0.00,CLR,,0.00,WeatherDisplay:10.37,2013-02-15 22:14:00,
2013-02-15 22:19:00,41.7,39.3,30.19,SSE,158,0.0,0.0,91,0.00,CLR,,0.00,WeatherDisplay:10.37,2013-02-15 22:19:00,
2013-02-15 22:24:00,41.7,39.3,30.19,SSE,158,0.0,0.0,91,0.00,CLR,,0.00,WeatherDisplay:10.37,2013-02-15 22:24:00,
2013-02-15 22:29:00,41.7,39.3,30.18,SSE,158,0.0,0.0,91,0.00,CLR,,0.00,WeatherDisplay:10.37,2013-02-15 22:29:00,
2013-02-15 22:34:00,41.5,39.1,30.18,SSE,158,0.0,0.0,91,0.00,CLR,,0.00,WeatherDisplay:10.37,2013-02-15 22:34:00,
2013-02-15 22:39:00,41.5,39.1,30.18,SSE,158,0.0,0.0,91,0.00,CLR,,0.00,WeatherDisplay:10.37,2013-02-15 22:39:00,
2013-02-15 22:44:00,41.4,38.9,30.18,SSE,158,1.1,1.1,91,0.00,CLR,,0.00,WeatherDisplay:10.37,2013-02-15 22:44:00,
2013-02-15 22:49:00,41.2,38.8,30.18,SSE,158,0.0,0.0,91,0.00,CLR,,0.00,WeatherDisplay:10.37,2013-02-15 22:49:00,
2013-02-15 22:54:00,41.0,38.3,30.18,SSE,158,0.0,0.0,90,0.00,CLR,,0.00,WeatherDisplay:10.37,2013-02-15 22:54:00,
2013-02-15 22:59:00,40.8,38.1,30.18,SSE,158,0.0,0.0,90,0.00,CLR,,0.00,WeatherDisplay:10.37,2013-02-15 22:59:00,
2013-02-15 23:05:00,40.8,38.1,30.18,SSE,158,0.0,0.0,90,0.00,CLR,,0.00,WeatherDisplay:10.37,2013-02-15 23:05:00,
2013-02-15 23:10:00,40.6,38.2,30.18,SSE,158,0.0,0.0,91,0.00,CLR,,0.00,WeatherDisplay:10.37,2013-02-15 23:10:00,
2013-02-15 23:15:00,40.5,37.8,30.18,SSE,158,1.1,1.1,90,0.00,CLR,,0.00,WeatherDisplay:10.37,2013-02-15 23:15:00,
2013-02-15 23:20:00,40.3,37.9,30.18,SSE,158,0.0,0.0,91,0.00,CLR,,0.00,WeatherDisplay:10.37,2013-02-15 23:20:00,
2013-02-15 23:25:00,40.3,37.9,30.19,SSE,158,0.0,0.0,91,0.00,CLR,,0.00,WeatherDisplay:10.37,2013-02-15 23:25:00,
2013-02-15 23:30:00,40.1,37.7,30.19,SSE,158,1.1,0.0,91,0.00,CLR,,0.00,WeatherDisplay:10.37,2013-02-15 23:30:00,
2013-02-15 23:35:00,39.9,37.5,30.19,SSE,158,0.0,0.0,91,0.00,CLR,,0.00,WeatherDisplay:10.37,2013-02-15 23:35:00,
2013-02-15 23:40:00,39.9,37.5,30.19,SSE,158,0.0,0.0,91,0.00,CLR,,0.00,WeatherDisplay:10.37,2013-02-15 23:40:00,
2013-02-15 23:45:00,39.9,37.5,30.19,SSE,158,0.0,0.0,91,0.00,CLR,,0.00,WeatherDisplay:10.37,2013-02-15 23:45:00,
2013-02-15 23:50:00,39.7,37.3,30.19,SSE,158,0.0,0.0,91,0.00,CLR,,0.00,WeatherDisplay:10.37,2013-02-15 23:50:00,
2013-02-15 23:55:00,39.6,37.2,30.19,SSE,158,0.0,0.0,91,0.00,CLR,,0.00,WeatherDisplay:10.37,2013-02-15 23:55:00,